Temperature
19 20 20 20 20 19 19 18 18 18 18 18 18 18 18 18 19 19 19 19 19 19 20 20 19 19 20 19 19 19 19 19 18 18 18 18 18 18 17 17 17 17 17 17
19 19 19 19 19 19 19 18 18 18 18 18 18 18 18 18 18 18 18 19 19 19 19 19 19 19 19 19 19 19 19 19 18 18 18 17 17 17 17 17 17 17 17 17
18 18 19 18 18 18 18 18 18 18 18 17 17 17 17 18 18 18 18 18 19 19 19 19 19 19 19 19 18 18 18 18 18 18 17 17 17 17 17 17 17 16 16 16
16 18 19 18 18 18 18 18 17 17 17 17 17 17 18 18 18 18 18 18 19 19 19 19 19 18 18 18 18 18 18 17 17 17 17 17 17 17 16 16 16 16 16 16
14 16 18 18 18 18 17 17 17 17 17 17 17 17 17 18 18 18 18 19 18 18 18 18 18 18 18 18 18 17 17 17 17 17 17 17 16 16 16 16 16 16 16 16
14 17 17 18 18 18 18 17 17 17 16 16 17 16 16 18 18 18 18 18 18 18 18 18 18 18 17 17 17 17 17 17 17 17 16 16 16 16 15 15 15 15 15 15
15 16 16 17 18 18 18 17 17 17 17 17 16 16 17 17 17 17 17 17 17 17 17 17 17 17 17 16 16 16 16 16 16 16 16 16 15 15 15 15 15 15 14 14
13 16 17 16 17 17 16 17 17 17 17 17 17 17 17 17 17 17 17 17 17 17 17 17 17 16 16 16 16 16 16 16 16 15 15 15 15 15 15 14 14 14 14 14
13 14 15 15 16 17 17 16 17 17 17 17 17 17 17 17 17 17 16 16 16 16 16 16 16 16 16 16 16 16 15 15 15 15 15 15 14 14 14 14 14 14 13 13
13 14 14 15 16 17 17 17 17 17 17 17 17 17 16 16 16 16 16 16 16 15 15 15 15 15 15 15 15 15 15 15 15 14 14 14 14 14 14 14 13 13 13 13
13 14 15 16 16 16 17 17 17 17 17 17 16 16 16 16 16 15 15 15 15 15 15 15 15 15 15 15 15 15 15 14 14 14 14 14 13 13 13 13 13 13 13 12
13 14 14 15 16 16 16 17 17 16 16 16 16 16 16 16 16 15 15 15 15 15 15 14 14 14 14 15 15 15 14 14 14 14 13 13 13 13 13 13 12 12 12 12
16 16 15 15 16 16 16 16 16 16 16 16 16 16 16 15 15 15 15 15 15 15 14 14 14 14 14 14 14 14 14 14 14 13 13 13 13 12 12 12 12 12 12 12
16 15 15 15 15 16 16 16 16 15 15 15 15 15 15 15 14 14 14 14 14 14 14 14 14 14 14 14 14 14 13 13 13 13 13 12 12 12 12 12 12 12 11 11
15 15 15 15 15 15 15 15 15 15 15 15 14 14 14 14 14 14 14 14 14 14 13 13 13 13 13 13 13 13 13 13 12 12 12 12 12 12 12 12 11 11 11 11
15 15 15 15 15 15 15 15 15 15 14 14 14 14 14 14 13 13 13 13 13 13 13 13 13 13 12 12 12 12 12 12 12 12 12 11 11 11 11 11 11 11 11 10
15 14 15 15 15 15 15 15 15 14 14 14 14 13 13 13 13 13 13 13 13 13 13 12 12 12 12 12 12 12 12 12 11 11 11 11 11 11 11 11 11 10 10 10
15 15 15 15 15 15 14 14 14 14 14 14 14 13 13 13 13 12 12 12 12 12 12 12 12 12 12 12 12 12 11 11 11 11 11 11 11 11 10 10 10 10 10 10
15 14 14 14 14 14 14 14 14 14 13 13 13 13 13 13 12 12 12 12 12 12 12 12 11 11 11 11 11 11 11 11 11 11 10 10 10 10 10 10 10 10 10 9
14 14 14 14 14 14 14 13 13 13 13 13 13 13 12 12 12 12 12 12 12 11 11 11 11 11 11 11 11 11 11 11 10 10 10 10 10 10 10 10 9 9 9 9
14 13 13 13 13 13 13 13 13 13 13 13 13 12 12 12 12 12 12 11 11 11 11 11 11 11 11 11 11 10 10 10 10 10 10 10 10 10 9 9 9 9 9 8
13 13 13 13 13 13 13 13 13 12 12 12 12 12 12 12 12 12 12 11 11 11 11 11 11 10 10 10 10 10 10 10 10 10 9 9 9 9 9 9 9 8 8 8
13 13 13 13 13 13 13 12 12 12 12 12 12 12 12 12 12 11 11 11 11 11 11 11 10 10 10 10 10 10 10 9 9 9 9 9 9 9 8 8 8 8 7 7
12 12 12 12 12 12 12 12 12 12 12 12 12 12 12 12 11 11 11 11 11 11 10 10 10 10 10 10 10 10 9 9 9 9 9 9 8 8 8 8 7 7 7 7
12 12 12 12 12 12 12 12 12 11 11 11 11 11 11 11 11 11 11 11 10 10 10 10 10 10 10 10 9 9 9 9 9 9 9 8 8 8 8 7 7 7 6 6
12 12 12 12 12 12 11 11 11 11 11 11 11 11 11 11 11 11 11 11 10 10 10 10 10 10 10 10 9 9 9 9 9 8 8 8 8 7 7 7 6 6 6 6
12 12 12 12 12 11 11 11 11 11 11 11 11 11 11 11 11 11 10 10 10 10 10 10 10 10 10 9 9 9 9 8 8 8 8 7 7 7 6 6 6 6 5 5
Wind_Speed
3 2 3 1 1 3 3 6 7 7 6 7 5 5 3 1 1 1 1 2 3 2 2 2 3 4 5 5 5 5 5 5 6 5 5 4 4 4 4 4 4 3 4 4
1 1 2 1 2 2 3 3 4 4 6 5 3 1 1 1 1 1 0 1 2 2 2 2 2 3 4 5 5 5 6 6 5 5 5 5 5 4 4 4 3 3 3 4
2 2 2 2 4 4 3 3 5 7 7 3 1 1 2 2 1 0 1 1 2 2 2 2 3 3 4 4 4 5 5 4 4 4 4 5 5 4 4 4 4 4 4 4
2 2 3 6 3 4 3 3 3 4 3 3 3 2 1 1 2 1 1 1 2 2 2 2 2 2 3 2 3 4 3 3 3 4 4 4 3 4 4 4 4 4 4 4
4 3 3 4 2 3 3 3 3 4 2 1 2 2 2 1 1 0 1 1 1 1 2 2 3 3 4 3 3 3 2 3 3 4 4 3 4 4 3 3 4 4 3 4
4 4 6 7 3 2 3 3 3 3 3 2 2 1 3 2 1 1 1 1 1 2 2 2 2 3 4 3 3 2 3 3 2 3 3 4 4 3 2 3 3 2 2 2
4 4 6 5 2 3 4 6 2 2 3 2 2 4 3 1 1 1 1 1 2 3 3 2 2 4 4 3 2 3 2 1 2 2 3 3 2 2 2 1 1 1 1 1
4 3 6 2 2 4 5 2 1 2 2 3 3 3 2 1 1 2 2 2 2 3 2 1 2 4 3 2 2 1 1 1 1 1 1 1 2 1 2 2 2 0 1 2
6 5 4 2 3 3 3 2 2 2 3 3 3 3 2 2 2 2 2 2 2 3 2 1 1 3 3 2 1 1 2 1 1 1 1 1 2 2 2 2 2 1 0 2
1 3 3 3 2 2 1 2 2 2 3 3 3 3 2 1 2 2 2 2 2 3 2 0 0 0 2 2 2 2 2 1 1 1 1 1 1 1 2 2 2 1 1 1
1 3 3 3 2 1 1 1 1 1 1 2 3 3 3 3 3 3 2 1 2 3 2 1 0 0 0 1 3 3 2 1 1 1 1 1 1 1 1 1 2 3 2 2
6 6 4 4 3 1 1 1 1 1 1 1 3 4 3 3 3 3 2 2 2 1 1 1 0 1 1 1 3 4 2 2 1 1 1 2 2 2 3 1 1 1 3 3
5 4 3 3 2 1 0 1 1 2 2 1 1 3 4 3 2 2 2 2 2 2 1 1 1 1 1 0 2 3 3 2 1 1 2 1 1 1 1 3 5 3 1 1
4 4 2 2 2 1 1 2 2 3 3 2 2 3 4 3 3 2 2 2 3 3 2 2 1 1 2 0 2 2 2 2 2 2 2 1 1 1 1 1 1 2 2 2
2 3 4 2 1 1 1 2 4 3 3 3 3 3 4 4 3 1 1 2 3 3 2 1 1 1 1 1 3 2 2 1 1 2 2 1 1 1 1 1 0 1 1 2
1 2 3 3 2 1 2 2 3 2 2 2 2 2 3 3 3 2 2 3 4 2 1 1 0 1 1 2 3 2 2 2 2 2 2 2 1 1 0 0 0 1 1 2
3 2 3 3 2 2 3 3 3 3 3 3 2 2 3 4 3 2 1 1 3 2 1 1 0 1 1 2 3 2 2 2 3 2 2 1 1 1 0 0 1 1 2 2
5 5 5 5 5 3 3 2 3 3 3 3 3 4 4 4 3 2 1 2 3 2 2 1 1 2 2 2 3 2 2 2 2 1 1 1 1 1 0 0 0 1 2 2
3 3 3 3 3 3 3 3 3 3 3 4 4 4 4 4 3 2 3 4 3 1 1 1 2 2 2 2 3 2 2 2 2 2 1 1 1 1 0 0 1 1 1 1
2 1 1 1 1 2 3 3 3 3 3 4 5 4 4 3 3 3 4 2 2 2 2 1 2 2 2 2 4 3 3 2 2 2 2 2 1 1 1 1 1 1 1 2
2 2 2 2 1 1 2 3 4 4 3 5 5 5 4 3 3 4 4 1 1 0 1 2 2 1 1 2 4 3 3 2 2 1 1 1 1 1 1 1 1 2 2 2
1 2 2 2 2 1 1 2 3 4 4 4 4 5 5 4 3 2 2 2 1 2 2 1 1 2 3 4 3 3 2 2 2 1 1 1 1 1 1 1 1 1 2 2
1 2 2 2 3 2 1 2 4 5 5 5 5 5 4 4 3 3 1 1 1 2 2 1 2 3 4 3 3 2 2 2 2 1 1 1 1 1 1 1 1 1 1 1
1 1 1 2 2 3 2 2 3 4 4 4 4 4 4 3 1 1 1 2 3 3 2 2 3 4 4 3 2 2 2 1 1 1 1 1 1 1 1 1 1 1 1 1
2 2 2 3 3 2 2 3 4 4 4 3 3 2 2 3 3 2 2 3 3 3 2 2 3 3 3 2 2 2 1 1 1 1 1 1 1 1 0 0 0 0 0 1
2 2 2 2 2 2 3 3 3 3 4 3 2 1 2 2 3 3 2 3 3 3 2 2 2 2 2 2 2 1 1 1 1 1 1 1 1 1 0 0 1 1 1 1
3 2 2 2 2 2 3 3 4 3 3 3 2 1 2 2 3 3 3 3 3 2 2 2 2 2 2 2 1 1 1 0 1 1 1 1 0 0 0 0 0 1 1 1
Wind_Direction
217 210 146 149 226 187 178 183 187 216 217 247 249 249 263 247 184 119 117 149 155 175 196 193 191 190 187 190 184 181 181 189 204 204 201 199 205 213 219 225 230 229 223 226
351 29 132 82 321 209 211 199 199 209 249 247 248 249 304 294 174 190 247 179 165 164 168 186 198 194 183 184 181 177 186 197 201 193 192 200 207 211 214 222 226 222 230 231
227 274 56 292 252 215 205 215 181 208 232 224 218 238 243 253 235 256 301 242 194 185 180 195 200 184 184 187 173 175 189 196 196 192 201 209 209 206 214 220 221 228 237 235
138 99 215 244 236 179 180 250 227 218 216 201 206 232 265 186 146 138 280 247 219 201 177 172 173 166 156 147 155 165 179 192 197 201 207 206 192 215 224 220 220 229 236 238
129 160 257 272 230 174 169 263 245 202 190 155 133 63 6 32 73 184 247 223 205 189 170 150 148 151 132 127 132 149 183 205 204 200 201 197 202 215 220 216 221 226 228 231
133 156 219 234 218 167 113 276 254 192 170 166 104 87 270 304 317 7 44 80 102 94 100 118 123 127 126 134 142 181 207 212 195 185 195 208 216 216 217 220 227 225 231 231
157 192 249 253 264 118 170 233 234 185 181 178 193 212 236 278 308 85 63 55 86 103 115 142 139 127 127 140 186 216 213 196 178 185 193 200 203 198 184 190 186 212 264 288
155 176 242 279 121 177 217 242 236 206 204 192 191 201 198 186 164 121 101 82 95 103 94 100 135 134 136 174 224 204 163 154 158 163 198 183 161 164 156 143 130 117 330 325
187 210 254 275 234 233 193 209 235 207 227 200 200 209 196 177 164 140 129 121 111 117 114 86 128 148 162 212 205 136 132 151 162 134 111 125 151 161 152 140 145 142 3 315
232 277 291 297 287 286 227 218 236 221 217 203 200 196 185 174 163 145 131 132 126 124 124 109 334 157 193 203 158 138 147 165 158 141 97 78 101 144 154 163 160 171 200 272
243 278 332 316 298 305 355 34 46 353 213 188 176 181 173 179 177 164 153 153 146 149 159 200 260 199 225 181 144 140 141 155 149 140 124 93 70 49 163 173 179 190 215 215
216 215 201 246 269 281 55 13 104 111 73 124 163 172 164 164 165 157 157 140 127 127 140 165 77 354 315 196 152 146 149 159 162 150 129 118 90 36 33 59 55 180 193 193
206 198 197 228 265 267 138 48 57 107 137 136 134 146 143 140 150 144 140 135 140 140 128 103 66 15 332 175 146 155 168 171 165 155 147 140 128 114 42 24 38 39 31 231
184 152 157 227 239 271 98 78 78 75 77 109 126 124 124 121 123 131 150 146 133 120 115 117 97 4 326 132 133 140 142 150 146 157 153 148 147 151 151 137 33 3 3 359
208 177 182 194 176 81 77 91 87 77 79 78 98 119 128 131 133 136 113 112 109 104 104 106 92 340 336 110 113 111 112 111 114 121 123 125 124 126 127 121 105 346 350 352
149 121 137 139 152 147 116 121 126 131 122 110 104 109 119 125 122 105 94 113 122 134 156 123 103 316 23 98 105 102 103 98 105 114 112 107 109 117 106 104 30 292 299 309
154 173 161 159 176 177 178 186 180 174 153 146 153 131 114 108 98 91 100 130 137 144 152 142 161 7 69 96 104 106 96 93 92 96 107 114 113 130 179 197 249 279 298 313
198 205 195 185 187 188 195 193 179 169 169 172 149 129 130 135 146 168 160 114 91 62 31 43 83 82 76 91 103 108 107 92 83 89 85 89 91 88 98 116 318 311 317 341
171 187 201 197 192 189 196 197 189 183 173 158 150 154 158 157 159 141 122 115 113 114 309 349 88 90 88 98 98 98 101 93 76 65 64 72 73 52 34 8 340 328 327 353
145 152 159 172 178 183 191 191 175 170 172 161 152 145 140 143 140 137 132 137 193 219 217 146 110 93 93 107 105 108 109 100 87 73 66 63 62 50 40 30 14 358 5 14
146 153 159 163 170 185 188 179 168 170 171 155 152 156 155 146 141 143 141 144 302 47 122 119 118 116 111 113 108 108 109 104 92 81 75 67 62 59 56 48 38 33 33 28
174 184 187 179 162 188 216 184 165 158 152 149 145 142 134 132 134 130 141 177 205 130 124 133 131 118 113 107 102 100 102 102 96 86 75 79 92 90 77 67 55 47 40 34
186 192 181 179 178 194 193 161 156 155 156 160 157 155 152 155 155 146 151 240 150 133 124 129 119 114 106 99 103 105 98 95 96 99 90 72 83 91 90 72 62 58 53 43
149 141 140 127 122 130 152 163 153 151 153 156 159 161 152 139 127 162 164 146 130 126 119 125 116 108 100 99 105 101 100 110 113 105 89 78 86 100 110 109 81 63 66 47
130 119 120 119 125 148 161 150 135 134 134 134 133 139 150 153 156 158 135 134 132 123 114 110 117 116 106 101 99 97 98 123 136 132 135 140 137 135 135 143 136 86 30 358
126 139 153 167 171 160 149 146 147 149 140 130 117 107 111 114 119 120 118 114 110 111 106 93 97 106 111 111 108 108 109 126 125 126 134 135 137 131 121 88 48 18 6 1
94 98 99 87 85 122 130 131 134 140 143 141 135 130 120 115 116 119 119 117 115 111 103 94 98 110 119 124 128 122 110 112 112 98 98 85 59 129 153 128 74 13 1 360
Height
1493 1489 1490 1492 1494 1495 1499 1502 1507 1504 1502 1495 1491 1489 1488 1488 1487 1488 1488 1489 1491 1493 1494 1496 1497 1499 1501 1503 1505 1507 1509 1510 1511 1512 1514 1515 1517 1518 1518 1520 1520 1521 1522 1522
1494 1490 1491 1494 1493 1493 1494 1496 1498 1498 1497 1489 1488 1489 1488 1488 1487 1488 1488 1488 1490 1491 1493 1495 1496 1497 1499 1501 1503 1505 1506 1507 1509 1510 1511 1512 1513 1514 1515 1516 1517 1518 1519 1519
1502 1495 1492 1501 1493 1492 1493 1491 1492 1495 1491 1487 1488 1488 1487 1488 1488 1487 1487 1488 1489 1490 1491 1493 1494 1496 1497 1499 1501 1502 1504 1504 1506 1507 1508 1509 1510 1510 1511 1512 1513 1514 1515 1515
1505 1500 1508 1497 1485 1486 1489 1489 1487 1486 1485 1486 1486 1487 1487 1487 1487 1487 1487 1487 1488 1489 1490 1492 1493 1495 1496 1498 1499 1500 1501 1502 1503 1504 1505 1505 1505 1507 1507 1508 1509 1509 1510 1511
1508 1508 1502 1492 1485 1485 1489 1490 1485 1484 1484 1485 1485 1486 1487 1487 1487 1486 1486 1486 1487 1488 1489 1490 1492 1493 1495 1496 1497 1498 1499 1500 1500 1501 1501 1501 1501 1502 1503 1504 1505 1505 1505 1506
1504 1505 1506 1491 1481 1481 1485 1491 1483 1482 1483 1485 1485 1489 1488 1486 1486 1486 1486 1486 1487 1487 1489 1490 1491 1492 1494 1494 1495 1496 1497 1498 1498 1498 1498 1498 1499 1499 1500 1501 1501 1501 1501 1502
1501 1501 1495 1482 1479 1481 1493 1489 1481 1481 1481 1483 1484 1485 1485 1485 1485 1485 1485 1485 1486 1486 1487 1489 1490 1491 1492 1493 1493 1494 1495 1495 1495 1495 1495 1496 1496 1496 1497 1497 1497 1498 1498 1499
1501 1500 1496 1479 1479 1483 1483 1479 1479 1479 1480 1481 1481 1482 1483 1484 1483 1483 1483 1484 1485 1485 1486 1488 1489 1490 1490 1491 1492 1493 1493 1492 1492 1493 1493 1494 1493 1494 1494 1495 1495 1495 1495 1496
1491 1490 1481 1478 1478 1477 1478 1478 1478 1478 1478 1479 1480 1480 1481 1482 1482 1482 1483 1483 1484 1485 1486 1487 1488 1489 1489 1490 1491 1491 1491 1491 1491 1491 1491 1491 1491 1491 1492 1492 1492 1492 1493 1492
1485 1482 1479 1478 1477 1476 1476 1477 1477 1477 1477 1478 1479 1479 1480 1480 1481 1481 1482 1483 1484 1485 1485 1486 1487 1488 1488 1489 1489 1490 1490 1490 1489 1489 1489 1489 1489 1490 1490 1490 1490 1490 1490 1490
1483 1480 1478 1477 1476 1476 1476 1476 1476 1476 1477 1477 1477 1478 1478 1479 1480 1480 1481 1482 1483 1484 1484 1485 1486 1487 1487 1488 1488 1488 1488 1488 1488 1488 1488 1488 1488 1488 1488 1488 1489 1488 1488 1487
1480 1476 1477 1477 1476 1476 1475 1475 1475 1475 1475 1476 1476 1476 1477 1478 1479 1480 1481 1482 1482 1483 1484 1484 1485 1485 1486 1486 1486 1487 1487 1487 1487 1487 1487 1486 1486 1486 1487 1488 1487 1487 1486 1486
1472 1474 1475 1475 1475 1476 1475 1475 1475 1475 1475 1476 1476 1476 1476 1477 1478 1479 1480 1480 1481 1482 1483 1483 1484 1484 1485 1485 1485 1485 1485 1486 1486 1486 1485 1485 1485 1485 1485 1486 1486 1485 1485 1484
1471 1472 1474 1474 1475 1475 1475 1475 1475 1475 1475 1476 1476 1476 1476 1477 1478 1479 1479 1480 1481 1481 1482 1483 1483 1483 1484 1483 1484 1484 1484 1484 1484 1484 1484 1484 1485 1485 1485 1484 1484 1483 1483 1483
1471 1472 1472 1473 1474 1474 1475 1475 1475 1475 1476 1476 1476 1476 1477 1477 1477 1478 1479 1480 1481 1481 1481 1481 1481 1481 1482 1482 1482 1482 1483 1483 1483 1483 1483 1484 1484 1484 1484 1483 1482 1482 1482 1482
1470 1471 1471 1472 1473 1474 1474 1474 1475 1475 1476 1476 1476 1477 1477 1477 1478 1478 1479 1480 1480 1480 1480 1480 1480 1481 1481 1481 1481 1481 1482 1482 1482 1483 1483 1483 1483 1483 1482 1482 1481 1481 1481 1480
1469 1469 1470 1471 1472 1473 1474 1474 1474 1475 1475 1476 1476 1476 1477 1477 1477 1478 1478 1479 1479 1480 1480 1480 1480 1480 1480 1480 1480 1481 1481 1482 1482 1482 1483 1482 1482 1482 1481 1481 1480 1480 1480 1479
1468 1469 1470 1470 1471 1472 1472 1473 1474 1474 1475 1475 1476 1476 1476 1476 1477 1477 1478 1478 1479 1479 1480 1480 1480 1480 1480 1480 1480 1480 1481 1481 1481 1482 1482 1482 1481 1481 1481 1480 1479 1479 1478 1477
1466 1467 1469 1470 1470 1470 1471 1472 1472 1473 1474 1474 1474 1474 1475 1476 1477 1477 1478 1478 1478 1479 1479 1480 1480 1480 1480 1480 1481 1481 1481 1481 1481 1481 1481 1481 1480 1480 1480 1479 1479 1478 1477 1476
1465 1466 1467 1468 1469 1469 1469 1470 1471 1471 1472 1472 1473 1473 1474 1475 1476 1477 1477 1478 1479 1479 1480 1480 1480 1480 1480 1481 1481 1481 1481 1481 1480 1480 1480 1480 1479 1479 1479 1479 1478 1478 1476 1475
1464 1465 1466 1466 1467 1467 1468 1468 1469 1469 1470 1471 1471 1472 1473 1474 1476 1477 1477 1478 1479 1479 1480 1480 1480 1480 1480 1481 1481 1481 1481 1481 1481 1480 1480 1479 1479 1479 1479 1478 1478 1477 1476 1474
1463 1464 1464 1464 1465 1465 1466 1467 1467 1468 1469 1470 1471 1472 1473 1474 1476 1477 1477 1478 1479 1480 1480 1480 1481 1481 1481 1481 1481 1481 1481 1481 1481 1480 1480 1479 1479 1478 1478 1477 1477 1476 1475 1474
1461 1462 1462 1462 1463 1463 1464 1465 1466 1467 1468 1469 1470 1472 1473 1474 1475 1476 1477 1479 1479 1480 1480 1481 1481 1481 1481 1481 1481 1482 1481 1481 1480 1480 1480 1479 1478 1478 1477 1477 1476 1475 1474 1472
1460 1460 1460 1461 1461 1462 1462 1463 1465 1466 1468 1469 1471 1472 1473 1474 1476 1477 1478 1479 1479 1480 1481 1481 1481 1481 1481 1481 1481 1481 1481 1481 1480 1480 1479 1479 1478 1477 1476 1475 1474 1473 1472 1471
1460 1460 1460 1460 1461 1461 1462 1463 1465 1466 1468 1469 1471 1472 1474 1475 1476 1477 1478 1479 1480 1480 1481 1481 1481 1481 1481 1481 1481 1481 1480 1480 1480 1479 1479 1478 1477 1476 1475 1474 1473 1472 1471 1469
1460 1460 1460 1461 1461 1462 1462 1463 1464 1466 1468 1469 1471 1473 1474 1475 1476 1477 1478 1479 1480 1480 1481 1481 1481 1481 1481 1481 1481 1481 1480 1480 1480 1479 1478 1477 1476 1475 1474 1473 1472 1470 1469 1468
1460 1460 1461 1461 1462 1463 1463 1464 1465 1466 1468 1470 1471 1473 1474 1475 1476 1477 1478 1479 1480 1480 1481 1481 1481 1481 1481 1481 1481 1481 1481 1480 1479 1478 1478 1476 1475 1474 1473 1471 1470 1469 1468 1466